Temperature
8 8 8 8 8 8 8 9 9 9 9 9 9 9 9 10 10 10 10 10 10 10 10 10 10 10 11 11 11 11 11 11 11 11 11 11 11 11 11 11 11 11 11
7 8 8 7 8 8 8 8 8 8 8 8 9 9 9 9 9 9 9 9 10 10 10 10 10 10 10 10 10 10 10 10 10 10 10 10 10 10 10 10 10 10 10
7 7 7 7 7 7 7 7 7 7 8 8 8 8 8 9 9 9 9 9 9 9 9 9 9 9 10 10 10 10 10 10 10 10 10 10 10 10 10 10 10 10 10
6 6 6 7 7 7 7 7 7 7 7 7 7 7 8 8 8 8 8 8 8 8 9 9 9 9 9 9 9 9 9 9 9 9 9 10 10 10 10 10 10 10 10
6 6 6 6 6 6 6 6 6 6 6 6 6 7 7 7 7 8 8 8 8 8 8 8 8 8 9 9 9 9 9 9 9 9 9 9 9 9 9 9 9 9 9
5 5 5 5 5 5 5 6 6 5 5 6 6 6 6 6 7 7 7 7 7 8 8 8 8 8 8 8 8 8 8 8 8 8 8 8 9 9 9 9 9 9 9
5 5 5 5 5 5 5 5 5 5 5 5 5 5 5 5 6 6 6 6 7 7 7 7 7 7 7 7 7 8 8 8 8 8 8 8 8 8 8 8 8 9 9
4 4 4 4 4 4 4 4 4 4 4 4 4 3 4 4 5 5 5 6 6 6 6 6 6 7 7 7 7 7 7 7 7 7 7 7 7 8 8 8 8 8 8
3 3 4 4 4 4 3 3 3 3 3 3 3 3 3 4 4 4 5 5 5 5 5 6 6 6 6 6 6 6 6 7 7 7 7 7 7 7 7 7 7 7 8
3 3 3 3 3 3 3 3 3 2 3 2 2 3 3 2 2 3 4 4 4 5 5 5 5 5 5 5 6 6 6 6 6 6 6 6 6 6 7 7 7 7 7
2 2 2 2 2 2 2 2 2 2 2 2 2 2 2 2 2 1 2 3 3 4 4 4 4 4 5 5 5 5 5 5 5 5 5 5 5 6 6 6 6 6 7
1 2 2 2 2 2 1 2 1 1 1 1 1 1 1 1 1 1 1 1 2 3 3 3 4 4 4 4 4 4 5 5 5 5 5 5 5 5 5 5 6 6 6
1 1 1 1 1 1 1 1 1 1 1 0 0 0 0 1 1 0 0 0 0 1 2 3 3 3 3 3 3 4 4 4 4 4 4 4 4 4 5 5 5 5 5
0 0 0 0 0 0 0 0 0 0 -0 -0 -0 -0 -0 -0 0 -0 -0 -0 -0 -0 1 2 2 2 2 3 3 3 3 3 3 3 3 3 4 4 4 4 4 4 5
-1 -1 -1 -1 -1 -0 -0 -0 -1 -1 -1 -1 -1 -1 -1 -1 -0 -0 -0 -1 -1 -1 -0 1 1 2 2 2 2 2 2 3 3 3 3 3 3 3 3 4 4 4 4
-1 -1 -1 -1 -1 -1 -1 -1 -1 -1 -1 -1 -1 -1 -1 -1 -1 -1 -1 -1 -1 -1 -1 -0 0 1 1 1 2 2 2 2 2 2 2 2 2 2 3 3 3 3 3
-2 -2 -2 -2 -2 -2 -2 -2 -2 -2 -2 -2 -2 -2 -2 -2 -2 -2 -1 -1 -2 -1 -1 -1 -0 0 0 0 1 1 1 1 1 1 1 2 2 2 2 2 2 2 2
-3 -3 -3 -3 -3 -3 -3 -3 -3 -3 -3 -3 -3 -3 -3 -2 -2 -2 -2 -2 -2 -2 -2 -1 -1 -0 -0 -0 -0 0 0 0 0 1 1 1 1 1 1 1 1 2 2
-3 -3 -3 -3 -3 -3 -3 -3 -3 -3 -3 -3 -3 -3 -3 -3 -3 -3 -3 -3 -2 -2 -2 -2 -1 -1 -1 -1 -1 -1 -0 -0 -0 -0 -0 -0 0 0 0 1 1 1 1
-4 -4 -4 -4 -4 -4 -4 -4 -4 -4 -4 -4 -4 -4 -4 -4 -4 -3 -3 -3 -3 -3 -3 -3 -2 -2 -2 -2 -2 -2 -1 -1 -1 -1 -1 -1 -1 -0 -0 -0 0 0 0
-5 -5 -5 -5 -5 -5 -5 -5 -5 -5 -5 -5 -5 -5 -4 -4 -4 -4 -4 -4 -4 -3 -3 -3 -3 -2 -2 -2 -2 -2 -2 -2 -2 -2 -2 -2 -2 -2 -1 -1 -1 -1 -0
-5 -5 -6 -6 -5 -5 -5 -5 -5 -5 -5 -5 -5 -5 -5 -5 -4 -4 -4 -4 -4 -4 -3 -3 -3 -3 -3 -3 -3 -3 -3 -3 -3 -3 -3 -2 -3 -3 -2 -2 -2 -1 -1
-6 -6 -6 -6 -6 -6 -6 -6 -6 -6 -6 -6 -6 -6 -5 -5 -5 -5 -5 -4 -4 -4 -4 -4 -3 -3 -3 -3 -3 -3 -3 -3 -3 -3 -3 -3 -3 -3 -3 -3 -2 -2 -2
-7 -7 -7 -6 -6 -6 -6 -6 -6 -6 -6 -6 -6 -6 -6 -6 -5 -5 -5 -5 -5 -4 -4 -4 -4 -4 -4 -4 -4 -4 -4 -4 -4 -4 -4 -4 -4 -4 -4 -3 -3 -3 -3
-7 -7 -7 -7 -7 -6 -6 -6 -7 -7 -7 -7 -6 -6 -6 -6 -6 -6 -6 -5 -5 -5 -5 -5 -4 -4 -4 -4 -4 -4 -5 -5 -5 -5 -5 -5 -5 -5 -4 -4 -4 -3 -3
-8 -7 -7 -7 -7 -7 -7 -7 -7 -7 -7 -7 -7 -7 -7 -6 -6 -6 -6 -6 -5 -5 -5 -5 -5 -5 -5 -5 -5 -5 -5 -5 -5 -6 -5 -5 -5 -5 -5 -5 -5 -4 -4
Wind_Speed
2 3 3 3 3 3 3 2 2 2 2 2 2 2 2 2 2 1 2 3 3 2 2 2 2 2 2 2 2 3 3 3 4 3 2 2 2 2 2 2 2 2 2
2 2 2 2 3 3 3 2 2 2 1 1 2 2 2 1 1 1 0 1 2 2 1 1 1 1 1 1 1 2 2 3 3 2 1 2 1 1 1 2 2 1 1
1 1 1 2 2 2 2 2 2 1 1 1 1 2 2 2 1 1 1 0 1 0 1 1 0 0 1 1 1 1 2 1 1 2 1 0 0 0 1 2 2 2 1
1 1 1 1 2 2 1 2 1 1 1 1 2 2 1 1 2 1 1 1 1 1 1 1 1 0 0 0 0 0 0 0 1 1 1 1 1 1 2 2 3 3 3
1 0 0 1 1 1 1 1 1 1 1 2 2 2 2 2 2 2 1 1 1 1 2 1 1 1 1 1 1 1 1 1 2 2 2 2 2 2 2 2 3 4 3
1 1 0 0 1 1 1 1 1 1 1 1 2 2 2 2 2 2 2 2 2 2 2 2 2 3 2 2 2 2 2 2 3 2 2 2 3 3 3 3 3 4 5
2 2 1 1 1 1 1 1 1 1 1 1 1 2 2 3 3 2 2 2 2 2 2 2 2 2 3 3 3 3 3 3 3 3 3 3 4 4 4 4 5 5 5
3 2 3 2 2 2 2 1 1 1 1 1 1 2 2 2 2 3 3 2 3 2 2 3 3 3 3 2 2 2 3 3 4 4 4 4 5 5 5 6 5 6 5
5 4 4 3 3 3 3 2 2 2 2 2 2 2 2 2 2 2 3 3 3 3 3 3 4 4 3 2 2 2 3 3 5 6 6 6 6 6 6 6 7 6 7
5 5 5 5 4 3 3 3 3 3 3 3 3 3 3 2 2 2 2 3 4 4 4 3 4 4 4 3 2 3 3 4 5 6 7 7 8 8 7 8 7 8 8
6 6 5 5 5 4 4 4 4 4 4 4 3 3 4 3 4 4 4 4 4 4 4 4 4 4 4 3 3 3 3 4 6 7 7 7 8 9 9 9 9 8 8
5 7 6 6 6 5 5 5 5 6 5 5 5 4 4 4 4 4 5 5 5 4 5 4 4 3 4 4 4 3 4 5 6 8 8 8 8 9 10 10 10 9 9
5 6 7 6 7 6 6 6 6 6 6 7 6 5 5 5 5 5 5 5 6 5 4 4 3 4 4 4 4 4 5 6 6 7 9 9 9 9 10 10 11 10 10
6 7 6 7 8 7 6 6 6 6 6 7 7 7 6 5 5 5 5 5 6 6 5 5 3 4 4 5 5 5 6 6 7 8 8 9 9 9 10 11 11 10 10
6 7 7 7 7 8 7 7 6 7 7 7 7 7 6 5 5 5 6 6 6 6 7 5 3 4 4 5 5 6 7 7 8 9 9 9 9 9 10 10 10 9 9
8 8 8 8 7 8 8 7 7 7 8 7 6 8 7 6 6 6 6 6 7 8 8 6 5 5 6 6 6 7 7 8 9 9 9 9 9 9 10 10 10 9 9
8 9 8 8 8 8 8 8 8 8 9 8 8 8 9 8 6 6 6 7 7 8 9 8 6 6 7 6 6 7 7 7 8 9 10 10 10 10 11 11 10 10 9
8 8 8 9 9 9 9 9 9 9 9 9 9 9 9 7 8 7 7 8 8 8 9 10 7 6 7 7 7 7 6 7 7 9 10 10 10 11 11 11 11 10 9
8 8 8 9 9 9 9 9 9 10 10 10 10 10 10 9 9 8 8 8 8 8 8 9 8 6 6 6 6 6 7 6 6 8 9 9 9 10 10 10 9 8 8
8 8 9 9 9 9 10 9 9 10 10 10 10 10 10 11 11 10 9 9 8 9 9 8 7 6 6 6 6 6 6 5 5 6 7 8 9 9 9 9 8 8 8
8 8 8 8 8 8 9 10 9 10 10 10 10 10 11 12 13 11 9 9 9 9 8 8 8 7 6 6 6 5 6 5 6 5 6 6 6 6 7 7 7 7 7
7 8 8 9 9 8 10 11 10 10 10 10 10 10 10 12 13 14 15 14 13 11 10 9 8 9 9 8 7 6 6 5 6 4 5 6 6 6 6 6 7 8 9
7 8 9 9 9 10 10 11 11 9 10 10 10 9 8 9 11 10 11 12 13 14 15 11 11 11 10 9 8 8 8 8 7 6 6 7 6 7 7 7 9 10 9
7 8 8 9 9 9 10 10 10 9 9 10 10 10 10 10 10 10 9 10 10 10 12 11 11 10 9 8 8 8 8 7 6 6 5 7 7 7 7 7 9 10 10
6 7 7 8 8 8 10 10 10 7 8 9 9 10 10 10 12 12 10 10 10 9 10 12 12 11 10 10 8 5 6 6 6 6 5 6 6 7 7 7 8 10 11
6 6 6 7 8 8 10 10 10 7 8 7 8 9 11 11 12 12 10 9 9 9 8 8 8 8 8 8 9 8 7 7 6 6 5 5 5 5 5 6 6 6 7
Wind_Direction
52 51 40 34 27 19 16 16 23 31 32 31 27 22 22 31 41 64 84 68 55 60 72 82 80 82 92 101 96 97 91 82 74 82 91 115 117 106 120 116 122 112 131
57 51 39 30 23 13 2 357 9 12 24 18 13 7 2 2 359 19 42 109 75 45 44 73 93 81 66 111 108 105 94 85 78 61 80 90 93 126 186 168 151 154 173
74 62 39 26 10 359 0 360 6 0 9 6 344 346 354 341 324 321 336 288 197 42 17 14 4 35 64 46 62 91 93 82 70 48 39 121 63 306 299 217 219 227 230
88 83 52 10 351 357 360 360 354 333 325 320 311 317 323 316 303 278 292 310 278 276 281 338 316 316 26 338 318 124 7 307 328 312 358 317 288 313 286 246 235 242 243
196 164 32 355 326 354 360 346 344 293 291 308 305 300 290 282 288 272 256 294 292 288 281 253 269 290 285 289 294 274 269 287 277 280 279 314 275 293 283 287 258 251 257
213 213 221 324 320 337 342 316 283 287 267 292 289 291 285 274 266 273 262 261 293 285 277 280 256 252 250 253 269 269 267 268 278 280 272 292 292 273 270 273 288 272 263
221 232 227 214 243 224 258 282 264 253 285 293 269 284 273 263 264 266 264 261 275 276 285 289 288 274 258 247 250 266 277 277 275 273 279 276 297 280 262 267 273 286 269
221 233 222 210 216 219 224 234 244 236 244 232 239 261 266 248 236 256 257 259 264 265 283 285 287 275 273 256 256 271 278 281 279 276 275 279 278 289 267 263 272 273 282
221 225 226 215 212 216 218 223 227 231 232 232 222 233 249 253 304 259 251 246 258 264 270 278 275 271 260 259 248 251 277 289 284 274 275 275 277 279 279 268 271 275 270
221 221 225 219 212 215 218 221 222 230 227 232 235 243 257 259 255 278 269 261 256 258 260 264 266 267 256 252 253 275 281 281 283 287 282 278 277 272 282 273 272 272 270
225 221 224 223 213 214 217 218 220 226 227 230 233 241 242 240 242 253 270 288 286 268 266 259 255 260 261 253 260 277 283 279 282 284 285 287 281 277 273 281 268 274 271
228 224 221 225 219 216 218 220 221 224 228 230 233 235 238 235 234 246 260 274 285 285 281 263 252 250 254 253 259 280 274 273 277 279 279 282 287 290 282 281 271 267 271
228 227 222 223 221 218 217 222 223 223 226 229 233 237 239 240 241 245 254 265 278 285 273 257 246 251 253 255 257 261 259 265 273 276 278 280 285 288 291 286 284 267 267
229 227 229 231 224 219 217 220 224 226 227 230 234 238 242 242 239 238 244 258 271 274 263 259 249 248 254 263 266 261 259 260 265 271 274 278 282 282 286 287 288 280 265
231 224 224 233 232 221 219 221 226 227 228 231 235 237 241 244 241 240 239 241 250 263 263 262 257 241 259 269 275 268 269 266 265 266 269 274 278 279 282 287 280 285 276
232 227 225 227 235 230 222 222 230 228 230 232 236 236 238 242 243 240 238 240 242 250 260 259 268 272 272 273 269 270 272 268 265 262 264 269 271 273 279 281 280 279 278
231 228 226 226 231 232 228 224 227 228 230 234 235 235 237 240 243 242 239 238 241 244 256 266 268 271 266 272 270 270 267 263 263 265 266 267 269 271 272 274 277 272 273
233 232 227 226 229 233 229 228 227 228 230 233 234 235 237 238 240 242 241 240 242 244 251 261 265 267 265 265 271 265 270 268 264 268 270 271 272 271 270 269 272 267 270
234 234 229 227 229 234 231 230 231 229 231 233 233 232 236 237 239 241 241 241 243 245 247 255 259 262 268 266 269 265 263 267 268 267 267 270 273 275 272 268 267 265 269
233 234 232 231 233 236 232 231 231 232 233 234 235 235 236 236 238 241 242 241 242 245 245 250 253 257 263 265 261 265 263 267 268 276 274 274 272 271 269 267 268 266 266
233 234 235 235 236 237 231 228 230 232 234 236 237 238 238 239 241 242 241 240 240 242 244 249 249 255 255 258 256 263 264 274 271 274 277 275 276 271 267 261 264 264 271
235 233 236 236 237 239 239 238 238 234 235 236 238 240 240 240 242 245 247 248 246 244 243 248 248 249 252 257 259 258 266 266 274 268 274 276 277 275 272 261 261 265 268
241 237 238 237 240 242 241 241 244 244 241 239 238 239 243 242 242 243 247 250 252 254 252 251 249 249 253 250 254 255 254 259 268 270 274 276 275 274 274 263 261 263 262
242 236 238 239 242 242 238 241 244 245 246 244 240 239 241 242 240 241 242 245 247 249 250 249 250 250 252 252 250 257 262 268 277 268 266 276 281 283 282 268 258 257 255
248 243 240 239 239 240 237 238 242 243 244 247 245 241 239 241 241 242 242 243 248 252 255 255 255 256 256 255 252 255 258 256 270 273 271 271 278 288 284 274 259 256 255
249 254 246 242 238 238 238 237 239 238 241 246 246 243 242 240 241 242 240 240 244 249 251 253 251 253 251 248 249 242 245 247 260 266 259 263 271 286 285 277 269 262 255
Height
1532 1532 1533 1532 1532 1533 1533 1533 1533 1534 1534 1535 1535 1536 1536 1537 1538 1538 1538 1538 1539 1539 1540 1541 1541 1542 1542 1543 1544 1544 1545 1545 1546 1547 1547 1548 1548 1549 1550 1550 1550 1551 1551
1531 1531 1531 1531 1531 1531 1531 1531 1532 1532 1532 1533 1533 1534 1534 1535 1536 1536 1536 1536 1537 1537 1538 1539 1539 1540 1540 1541 1542 1542 1543 1544 1544 1545 1545 1546 1546 1547 1548 1548 1549 1549 1550
1529 1529 1529 1529 1529 1530 1530 1530 1530 1530 1531 1531 1531 1532 1532 1533 1533 1534 1534 1534 1535 1535 1536 1536 1537 1537 1538 1539 1539 1540 1541 1541 1542 1543 1544 1544 1545 1545 1546 1546 1547 1547 1548
1527 1527 1527 1527 1528 1528 1528 1528 1528 1528 1528 1529 1529 1529 1530 1530 1530 1531 1532 1532 1532 1533 1533 1534 1534 1535 1536 1536 1537 1538 1538 1539 1540 1541 1541 1542 1542 1543 1543 1544 1545 1545 1546
1524 1524 1525 1525 1525 1525 1525 1526 1526 1526 1526 1526 1526 1527 1527 1527 1528 1528 1529 1529 1530 1530 1531 1531 1532 1532 1533 1534 1534 1535 1536 1536 1537 1538 1538 1539 1540 1540 1541 1542 1542 1543 1543
1521 1522 1522 1522 1522 1522 1523 1523 1523 1524 1524 1524 1524 1524 1524 1524 1524 1525 1525 1526 1527 1527 1528 1528 1529 1529 1530 1531 1532 1532 1533 1534 1534 1535 1535 1536 1536 1537 1538 1538 1539 1540 1540
1517 1518 1518 1519 1519 1520 1520 1520 1521 1521 1521 1521 1522 1521 1521 1521 1521 1521 1522 1522 1523 1524 1525 1525 1526 1526 1527 1527 1528 1529 1530 1530 1531 1532 1532 1533 1533 1534 1534 1535 1535 1536 1537
1513 1514 1514 1515 1515 1516 1517 1517 1517 1518 1518 1519 1519 1519 1520 1521 1519 1518 1518 1519 1520 1520 1521 1522 1522 1523 1523 1524 1524 1525 1526 1527 1528 1528 1529 1529 1530 1530 1531 1531 1532 1533 1533
1509 1509 1510 1510 1511 1512 1512 1513 1514 1515 1515 1516 1516 1518 1518 1517 1516 1515 1515 1515 1516 1516 1517 1518 1519 1520 1520 1520 1520 1521 1522 1523 1524 1524 1525 1525 1526 1526 1527 1527 1528 1528 1529
1503 1505 1505 1506 1506 1507 1508 1509 1510 1510 1511 1512 1513 1513 1515 1514 1514 1512 1512 1512 1512 1513 1513 1514 1515 1515 1516 1516 1517 1517 1518 1519 1519 1520 1520 1521 1522 1522 1522 1523 1523 1524 1524
1498 1499 1500 1501 1502 1502 1503 1504 1505 1506 1507 1507 1508 1509 1510 1510 1510 1510 1509 1508 1509 1509 1509 1510 1510 1511 1511 1512 1512 1513 1513 1514 1515 1515 1516 1516 1517 1517 1518 1518 1519 1519 1520
1492 1494 1495 1496 1497 1497 1498 1499 1500 1501 1502 1503 1504 1505 1505 1506 1506 1506 1506 1505 1504 1504 1505 1505 1505 1506 1507 1507 1507 1508 1509 1509 1510 1510 1511 1511 1511 1512 1512 1513 1513 1514 1515
1487 1488 1489 1490 1491 1492 1493 1494 1495 1496 1497 1498 1499 1500 1501 1501 1502 1502 1502 1501 1501 1500 1500 1500 1500 1501 1502 1502 1502 1503 1503 1504 1504 1505 1505 1506 1506 1506 1507 1507 1508 1509 1509
1481 1482 1483 1485 1486 1487 1487 1489 1490 1490 1492 1493 1493 1495 1495 1496 1497 1498 1499 1499 1497 1496 1496 1496 1496 1496 1497 1497 1497 1497 1498 1498 1499 1499 1500 1500 1500 1500 1501 1502 1502 1502 1503
1476 1477 1477 1479 1480 1481 1482 1483 1484 1485 1486 1487 1488 1489 1490 1491 1492 1493 1494 1495 1495 1493 1491 1491 1491 1491 1492 1492 1492 1492 1492 1493 1493 1493 1494 1494 1494 1494 1495 1495 1496 1496 1497
1470 1470 1471 1472 1473 1475 1476 1477 1477 1479 1480 1481 1482 1483 1484 1485 1486 1487 1488 1489 1490 1490 1488 1486 1486 1486 1486 1486 1486 1487 1487 1487 1487 1487 1487 1488 1488 1488 1489 1489 1489 1490 1491
1463 1463 1464 1466 1467 1468 1469 1470 1471 1472 1473 1475 1476 1477 1478 1479 1480 1482 1483 1483 1484 1485 1483 1481 1481 1481 1481 1481 1481 1481 1482 1481 1481 1481 1482 1482 1482 1482 1482 1483 1483 1484 1484
1456 1457 1458 1459 1461 1461 1462 1463 1464 1465 1467 1468 1469 1471 1472 1473 1474 1476 1477 1477 1478 1478 1478 1476 1475 1475 1475 1476 1476 1476 1476 1476 1476 1475 1476 1475 1475 1476 1476 1476 1477 1477 1478
1450 1451 1452 1452 1453 1455 1456 1456 1457 1459 1460 1461 1463 1464 1465 1467 1468 1469 1470 1471 1471 1472 1472 1472 1470 1470 1470 1470 1470 1470 1470 1470 1470 1470 1470 1470 1469 1469 1470 1470 1470 1470 1471
1443 1444 1445 1445 1446 1447 1449 1450 1451 1452 1453 1455 1456 1458 1459 1460 1461 1462 1463 1464 1465 1466 1466 1466 1465 1464 1464 1465 1465 1464 1464 1464 1464 1464 1464 1464 1464 1464 1463 1463 1463 1464 1464
1437 1438 1438 1439 1440 1441 1442 1444 1445 1445 1447 1448 1449 1451 1452 1453 1454 1456 1457 1458 1459 1459 1460 1459 1459 1459 1459 1459 1459 1459 1459 1458 1458 1459 1458 1458 1458 1458 1457 1457 1457 1457 1457
1430 1431 1432 1432 1433 1435 1436 1437 1439 1439 1440 1441 1442 1444 1445 1447 1448 1449 1450 1451 1452 1453 1453 1453 1453 1453 1452 1453 1454 1454 1453 1453 1452 1453 1453 1452 1453 1452 1451 1451 1451 1451 1451
1424 1425 1426 1426 1427 1428 1430 1431 1432 1433 1434 1435 1436 1437 1438 1440 1441 1442 1443 1444 1445 1445 1446 1447 1447 1446 1447 1447 1448 1448 1447 1447 1446 1446 1448 1445 1446 1445 1445 1445 1444 1445 1445
1418 1419 1420 1420 1421 1422 1423 1425 1426 1427 1428 1429 1430 1431 1432 1433 1434 1435 1436 1437 1437 1438 1439 1440 1440 1440 1441 1441 1442 1442 1442 1441 1441 1442 1442 1441 1440 1439 1439 1438 1438 1438 1438
1413 1413 1414 1414 1415 1415 1417 1419 1420 1421 1422 1423 1424 1425 1426 1426 1427 1429 1430 1430 1430 1431 1432 1432 1433 1434 1434 1435 1436 1437 1436 1436 1435 1435 1435 1435 1434 1433 1432 1431 1431 1431 1431
1409 1408 1409 1409 1409 1410 1411 1413 1414 1416 1416 1417 1418 1419 1419 1420 1421 1422 1423 1424 1424 1424 1425 1425 1426 1427 1428 1428 1430 1430 1430 1430 1429 1428 1428 1429 1428 1428 1426 1425 1425 1425 1425